Weather History for KLXV - November, 2010

Change the Weather History Date:

Monday, November 22, 2010

  Actual Average Record
Temperature  
Mean Temperature 7 °F -  
Max Temperature 16 °F 34 °F 48 °F (1998)
Min Temperature -2 °F 10 °F -11 °F (1979)
Degree Days  
Heating Degree Days 58 43  
Month to date heating degree days 842 856  
Since 1 July heating degree days 2719 3045  
Cooling Degree Days 0 0  
Month to date cooling degree days 0 0  
Year to date cooling degree days 0 0  
Moisture  
Dew Point 4 °F    
Average Humidity 73    
Maximum Humidity 92    
Minimum Humidity 53    
Precipitation  
Precipitation 0.04 in 0.02 in 0.16 in (2013)
Month to date precipitation 0.88 0.58  
Year to date precipitation 12.99 11.52  
Sea Level Pressure  
Sea Level Pressure 29.74 in    
Wind  
Wind Speed 7 mph (North)    
Max Wind Speed 20 mph    
Max Gust Speed 28 mph    
Visibility 6 miles    
Events Snow    
T = Trace of Precipitation, MM = Missing Value Source: NWS Daily Summary

Daily Weather History Graph

Daily Weather History Graph

Search for Another Location

Airport or City:

Trip Planner

Search our weather history database for the weather conditions in past years. The results will help you decide how hot, cold, wet, or windy it might be!

Date:

Astronomy

Nov. 22, 2010 Rise Set
Actual Time 6:56 AM MST 4:46 PM MST
Civil Twilight 6:27 AM MST 5:15 PM MST
Nautical Twilight 5:54 AM MST 5:47 PM MST
Astronomical Twilight 5:22 AM MST 6:19 PM MST
Moon 5:31 PM MST (11/22) 8:00 AM MST (11/22)
Length of Visible Light 10h 47m
Length of Day
9h 49m
Full, 99% of the Moon is Illuminated
Nov 22
Full
Nov 28
Last Quarter
Dec 5
New
Dec 13
First Quarter
Dec 21
Full

Hourly Weather History & Observations

Time (MST) Temp. Windchill Dew Point Humidity Pressure Visibility Wind Dir Wind Speed Gust Speed Precip Events Conditions
12:01 AM 14.0 °F 0.5 °F 10.4 °F 86% 29.63 in 1.5 mi North 11.5 mph 17.3 mph 0.00 in Snow Light Snow
12:15 AM 14.0 °F 2.9 °F 10.4 °F 86% 29.64 in 2.0 mi NNE 8.1 mph - 0.00 in Snow Light Snow
12:22 AM 14.0 °F 2.9 °F 10.4 °F 86% 29.64 in 1.8 mi NE 8.1 mph - 0.00 in Snow Light Snow
12:53 AM 12.0 °F -1.3 °F 8.1 °F 84% 29.57 in 1.2 mi North 10.4 mph 24.2 mph 0.00 in Snow Light Snow
1:00 AM 12.2 °F -3.1 °F 8.6 °F 85% 29.64 in 1.0 mi North 13.8 mph 21.9 mph 0.01 in Snow Light Snow
1:08 AM 12.2 °F -2.5 °F 8.6 °F 85% 29.64 in 0.8 mi North 12.7 mph 19.6 mph 0.01 in Snow Light Snow
1:21 AM 12.2 °F 0.7 °F 8.6 °F 85% 29.64 in 1.0 mi North 8.1 mph 16.1 mph 0.01 in Snow Light Snow
1:37 AM 12.2 °F -2.5 °F 8.6 °F 85% 29.64 in 1.8 mi NNW 12.7 mph 17.3 mph 0.02 in Snow Light Snow
1:41 AM 12.2 °F -1.8 °F 8.6 °F 85% 29.64 in 2.5 mi North 11.5 mph 17.3 mph 0.02 in Snow Light Snow
1:49 AM 12.2 °F 1.7 °F 8.6 °F 85% 29.65 in 4.0 mi North 6.9 mph 17.3 mph 0.02 in Snow Light Snow
1:53 AM 12.0 °F 4.1 °F 8.1 °F 84% 29.58 in 4.0 mi Variable 4.6 mph - 0.02 in Snow Light Snow
2:01 AM 12.2 °F -0.2 °F 8.6 °F 85% 29.65 in 1.8 mi North 9.2 mph - 0.00 in Snow Light Snow
2:22 AM 12.2 °F -2.5 °F 8.6 °F 85% 29.66 in 1.5 mi NNW 12.7 mph 19.6 mph 0.00 in Snow Light Snow
2:53 AM 10.9 °F -2.6 °F 8.1 °F 88% 29.60 in 1.0 mi North 10.4 mph 16.1 mph 0.00 in Snow Light Snow
3:08 AM 10.4 °F -1.5 °F 6.8 °F 85% 29.67 in 1.5 mi North 8.1 mph - 0.01 in Snow Light Snow
3:20 AM 10.4 °F -1.5 °F 6.8 °F 85% 29.66 in 2.0 mi North 8.1 mph - 0.01 in Snow Light Snow
3:30 AM 10.4 °F -4.1 °F 6.8 °F 85% 29.67 in 4.0 mi North 11.5 mph 21.9 mph 0.01 in Snow Light Snow
3:53 AM 10.9 °F 1.4 °F 5.0 °F 77% 29.62 in 8.0 mi Variable 5.8 mph - 0.01 in   Overcast
4:53 AM 7.0 °F - 1.9 °F 80% 29.65 in 10.0 mi Calm Calm - N/A   Partly Cloudy
5:53 AM 3.9 °F -6.9 °F -2.0 °F 76% 29.67 in 10.0 mi East 5.8 mph - N/A   Clear
6:53 AM 3.0 °F -4.4 °F -2.9 °F 76% 29.70 in 10.0 mi East 3.5 mph - N/A   Clear
7:53 AM 9.0 °F 0.6 °F 1.0 °F 70% 29.67 in 10.0 mi Variable 4.6 mph - N/A   Clear
8:53 AM 12.0 °F 0.5 °F 1.9 °F 64% 29.71 in 10.0 mi NNW 8.1 mph - N/A   Partly Cloudy
9:53 AM 12.9 °F -0.9 °F 3.0 °F 65% 29.73 in 10.0 mi NNW 11.5 mph 17.3 mph N/A   Mostly Cloudy
10:06 AM 12.2 °F -0.2 °F 5.0 °F 73% 29.73 in 2.5 mi NNW 9.2 mph - 0.00 in Snow Light Snow
10:21 AM 12.2 °F -0.2 °F 5.0 °F 73% 29.73 in 3.0 mi NW 9.2 mph - 0.00 in Snow Light Snow
10:51 AM 15.8 °F 3.4 °F 5.0 °F 62% 29.73 in 10.0 mi North 10.4 mph 17.3 mph 0.00 in   Mostly Cloudy
10:53 AM 14.0 °F -0.8 °F 3.9 °F 64% 29.72 in 10.0 mi North 13.8 mph 19.6 mph 0.00 in   Mostly Cloudy
11:53 AM 12.9 °F -0.2 °F 3.9 °F 67% 29.74 in 10.0 mi NNW 10.4 mph - N/A   Mostly Cloudy
12:13 PM 14.0 °F 5.1 °F 5.0 °F 67% 29.73 in 5.0 mi NNW 5.8 mph - 0.00 in Snow Light Snow
12:24 PM 14.0 °F 8.2 °F 6.8 °F 73% 29.73 in 2.5 mi Variable 3.5 mph - 0.00 in Snow Light Snow
12:31 PM 14.0 °F 5.1 °F 5.0 °F 67% 29.73 in 7.0 mi West 5.8 mph - 0.01 in   Mostly Cloudy
12:42 PM 15.8 °F 8.6 °F 3.2 °F 58% 29.73 in 10.0 mi Variable 4.6 mph - 0.01 in   Mostly Cloudy
12:53 PM 15.1 °F 9.4 °F 3.0 °F 59% 29.74 in 10.0 mi Variable 3.5 mph - 0.01 in   Mostly Cloudy
1:11 PM 14.0 °F - 5.0 °F 67% 29.74 in 3.0 mi Calm Calm - 0.00 in Snow Light Snow
1:31 PM 15.8 °F 10.2 °F 5.0 °F 62% 29.74 in 2.5 mi Variable 3.5 mph - 0.00 in Snow Light Snow
1:39 PM 15.8 °F 10.2 °F 6.8 °F 68% 29.75 in 4.0 mi NNE 3.5 mph - 0.00 in Snow Light Snow
1:53 PM 16.0 °F 2.9 °F 3.9 °F 59% 29.76 in 9.0 mi West 11.5 mph 16.1 mph 0.00 in   Overcast
2:07 PM 15.8 °F 5.1 °F 1.4 °F 53% 29.75 in 10.0 mi West 8.1 mph - N/A   Mostly Cloudy
2:53 PM 15.1 °F 1.1 °F 1.9 °F 56% 29.81 in 10.0 mi NW 12.7 mph 20.7 mph N/A   Mostly Cloudy
3:53 PM 12.9 °F -0.9 °F 1.0 °F 59% 29.84 in 10.0 mi WNW 11.5 mph 20.7 mph N/A   Mostly Cloudy
4:53 PM 12.0 °F -2.0 °F -0.0 °F 59% 29.91 in 10.0 mi NW 11.5 mph 23.0 mph N/A   Clear
5:53 PM 10.0 °F - 1.9 °F 70% 29.99 in 10.0 mi Calm Calm - N/A   Mostly Cloudy
6:53 PM 6.1 °F -5.6 °F 1.0 °F 80% 30.04 in 10.0 mi ENE 6.9 mph - N/A   Clear
7:53 PM 8.1 °F -2.0 °F 1.0 °F 73% 29.99 in 10.0 mi East 5.8 mph - N/A   Scattered Clouds
8:53 PM 6.1 °F -5.6 °F -0.0 °F 76% 30.03 in 10.0 mi ENE 6.9 mph - N/A   Mostly Cloudy
9:53 PM 1.0 °F - -2.0 °F 87% 30.06 in 10.0 mi Calm Calm - N/A   Clear
10:53 PM 1.9 °F -5.6 °F -2.9 °F 80% 30.06 in 10.0 mi Variable 3.5 mph - N/A   Clear
11:53 PM 1.0 °F -6.7 °F -5.1 °F 75% 30.08 in 10.0 mi West 3.5 mph - N/A   Clear